Tracking 35274 objects as of 11-Sep-2026
HD Live streaming from Space Station
objects crossing your sky now

STARLINK-30313

Track STARLINK-30313 now!
10-day predictions
STARLINK-30313 is classified as:


NORAD ID: 57676
Int'l Code: 2023-124P
Launch date: August 22, 2023
Source: United States (US)
Launch site: AIR FORCE WESTERN TEST RANGE (AFWTR)
Your satellite tracking list
Your tracking list is empty




NASA's NSSDC Master Catalog

Two Line Element Set (TLE):
1 57676U 23124P   26254.45237128  .00001271  00000-0  48752-4 0  9995
2 57676  53.1626  63.6816 0001239  75.5229 284.5911 15.34388176172018
Source of the keplerian elements: AFSPC